SCP
0 0 0 0 0 0 0 0 1 1 1 1 1 1 1 1 1 1 1 1 1 1 1 2 2 1 1 1 1 1 1 0 0 0 0 0 0 0 0 0 0 0 0
0 0 0 0 0 0 0 0 0 1 1 1 1 1 1 1 2 2 1 1 1 1 1 2 2 1 1 1 1 1 1 1 0 0 0 0 0 0 0 0 0 0 0
0 0 0 0 0 0 0 0 0 0 0 1 1 1 1 1 2 2 2 2 1 1 1 1 1 1 1 1 1 1 1 1 1 0 0 0 0 0 0 0 0 0 0
0 0 0 0 0 0 0 0 0 0 0 0 0 1 1 1 2 2 3 2 2 1 1 1 1 1 1 1 2 2 1 1 1 1 0 0 0 0 0 0 0 0 0
0 0 0 0 0 0 0 0 0 0 0 0 0 0 1 1 1 2 3 2 2 1 1 1 1 1 1 1 1 1 1 1 1 0 0 0 0 0 0 0 0 0 0
0 0 0 0 0 0 0 0 0 0 0 0 0 0 0 1 1 1 2 2 1 1 0 1 1 1 0 0 0 0 0 0 0 0 0 0 0 0 0 0 0 0 0
0 0 0 0 0 0 0 0 0 0 0 0 0 0 0 0 0 0 1 1 1 0 0 0 0 0 0 0 0 0 0 0 0 0 0 0 0 0 0 0 0 0 0
0 0 0 0 0 0 0 0 0 0 0 0 0 0 0 0 0 0 0 0 0 0 0 0 0 0 0 0 0 0 0 0 0 0 0 0 0 0 0 0 0 0 0
0 0 0 0 0 0 0 0 0 0 0 0 0 0 0 0 0 0 0 0 0 0 0 0 0 0 0 0 0 0 0 0 0 0 0 0 0 0 0 0 0 0 0
0 0 0 0 0 0 0 0 0 0 0 0 0 0 0 0 0 0 0 0 0 0 0 0 0 0 0 0 0 0 0 0 0 0 0 0 0 0 0 0 0 0 0
0 0 0 0 0 0 0 0 0 0 0 0 0 0 0 0 0 0 0 0 0 0 0 0 0 0 0 0 0 0 0 0 0 0 0 0 0 0 0 0 0 0 0
0 0 0 0 0 0 0 0 0 0 0 0 0 0 0 0 0 0 0 0 0 0 0 0 0 0 0 0 0 0 0 0 0 0 0 0 0 0 0 0 0 0 0
0 0 0 0 0 0 0 0 0 0 0 0 0 0 0 0 0 0 0 0 0 0 0 0 0 0 0 0 0 0 0 0 0 0 0 0 0 0 0 0 0 0 0
0 0 0 0 0 0 0 0 0 0 0 0 0 0 0 0 0 0 0 0 0 0 0 0 0 0 0 0 0 0 0 0 0 0 0 0 0 0 0 0 0 0 0
0 0 0 0 0 0 0 0 0 0 0 0 0 0 0 0 0 0 0 0 0 0 0 0 0 0 0 0 0 0 0 0 0 0 0 0 0 0 0 0 0 0 0
0 0 0 0 0 0 0 0 0 0 0 0 0 0 0 0 0 0 0 0 0 0 0 0 0 0 0 0 0 0 0 0 0 0 0 0 0 0 0 0 0 0 0
0 0 0 0 0 0 0 0 0 0 0 0 0 0 0 0 0 0 0 0 0 0 0 0 0 0 0 0 0 0 0 0 0 0 0 0 0 0 0 0 0 0 0
0 0 0 0 0 0 0 0 0 0 0 0 0 0 0 0 0 0 0 0 0 0 0 0 0 0 0 0 0 0 0 0 0 0 0 0 0 0 0 0 0 0 0
0 0 0 0 0 0 0 0 0 0 0 0 0 0 0 0 0 0 0 0 0 0 0 0 0 0 0 0 0 0 0 0 0 0 0 0 0 0 0 0 0 0 0
0 0 0 0 0 0 0 0 0 0 0 0 0 0 0 0 0 0 0 0 0 0 0 0 0 0 0 0 0 0 0 0 0 0 0 0 0 0 0 0 0 0 0
0 0 0 0 0 0 0 0 0 0 0 0 0 0 0 0 0 0 0 0 0 0 0 0 0 0 0 0 0 0 0 0 0 0 0 0 0 0 0 0 0 0 0
0 0 0 0 0 0 0 0 0 0 0 0 0 0 0 0 0 0 0 0 0 0 0 0 0 0 0 0 0 0 0 0 0 0 0 0 0 0 0 0 0 0 0
0 0 0 0 0 0 0 0 0 0 0 0 0 0 0 0 0 0 0 0 0 0 0 0 0 0 0 0 0 0 0 0 0 0 0 0 0 0 0 0 0 0 0
0 0 0 0 0 0 0 0 0 0 0 0 0 0 0 0 0 0 0 0 0 0 0 0 0 0 0 0 0 0 0 0 0 0 0 0 0 0 0 0 0 0 0
0 0 0 0 0 0 0 0 0 0 0 0 0 0 0 0 0 0 0 0 0 0 0 0 0 0 0 0 0 0 0 0 0 0 0 0 0 0 0 0 0 0 0
0 0 0 0 0 0 0 0 0 0 0 0 0 0 0 0 0 0 0 0 0 0 0 0 0 0 0 0 0 0 0 0 0 0 0 0 0 0 0 0 0 0 0
Wind_Speed
5 5 6 6 7 7 7 8 8 8 8 9 9 10 11 12 13 14 14 13 15 14 13 14 15 12 10 8 8 7 8 7 8 3 2 3 5 6 5 5 5 5 6
5 5 6 6 6 7 8 8 7 8 7 8 8 9 10 11 11 13 14 14 14 15 14 14 14 11 13 10 9 9 9 8 7 6 4 3 4 6 6 6 4 3 4
5 6 6 6 7 7 8 7 7 7 7 7 7 9 10 10 11 12 13 13 14 14 13 14 14 13 13 10 10 10 8 7 7 6 5 3 3 4 4 4 4 3 3
5 6 6 7 7 8 8 7 7 7 8 7 8 9 9 9 9 10 11 11 12 12 12 12 12 13 13 12 10 10 8 7 6 6 5 4 3 4 4 4 4 3 3
6 6 7 7 7 7 8 8 7 7 8 8 8 8 8 8 8 9 9 10 10 10 10 10 10 11 12 10 8 9 9 7 6 6 5 4 4 5 5 5 5 4 2
7 7 7 7 7 8 8 8 8 8 7 7 8 8 8 7 8 10 9 8 8 9 8 7 7 8 8 10 10 10 10 9 9 7 6 6 7 6 5 5 5 5 3
7 7 7 7 7 8 8 8 8 8 7 7 8 8 9 9 9 10 11 8 8 8 7 6 5 5 7 7 7 7 5 7 9 8 7 7 7 8 8 7 6 5 4
7 7 7 7 8 8 8 8 8 7 7 7 7 7 8 7 8 9 9 8 6 6 6 6 7 6 7 8 7 5 4 3 4 5 5 5 5 7 8 7 7 5 4
8 8 7 7 8 8 8 8 7 6 7 7 6 6 7 7 7 7 7 4 4 3 3 4 6 6 9 11 9 8 6 4 6 9 9 8 10 11 10 7 6 6 3
8 9 8 8 8 9 9 8 6 6 7 5 5 5 5 5 5 6 7 4 3 2 2 3 5 6 10 11 8 8 8 6 7 8 8 8 7 9 10 6 6 6 4
9 9 9 8 8 9 8 7 6 6 5 5 5 4 4 4 4 5 6 4 4 3 3 2 3 9 10 10 9 6 9 9 7 8 7 6 6 5 5 4 3 3 4
9 9 9 9 7 6 7 7 5 5 5 5 4 4 3 2 3 4 5 6 5 4 4 3 5 10 10 10 8 11 14 10 6 6 6 5 5 5 5 5 6 6 5
10 10 9 9 7 6 6 6 5 4 4 4 4 4 3 1 1 3 4 5 6 3 3 7 9 11 10 8 11 12 9 6 6 6 6 5 4 5 6 5 6 7 8
10 10 8 8 7 6 5 5 5 4 4 4 4 4 3 2 1 1 2 3 5 5 5 7 10 11 8 8 7 6 4 5 6 6 6 6 5 5 5 4 4 4 4
10 9 8 7 7 5 5 4 5 5 5 5 4 3 3 3 3 4 4 3 4 5 6 4 4 4 4 4 5 5 4 5 5 6 6 6 6 5 4 4 4 3 3
9 8 6 5 5 5 4 4 4 5 5 5 4 4 3 3 5 6 6 8 10 11 6 4 4 4 4 5 5 5 4 5 5 6 6 6 6 6 5 4 4 4 4
9 9 6 5 5 4 4 4 4 3 2 2 3 3 3 5 7 8 9 9 10 9 4 4 4 4 4 5 5 5 4 4 5 6 6 5 6 5 5 5 4 4 4
9 9 7 6 5 5 4 4 3 3 3 2 1 2 4 5 7 8 9 8 5 4 3 4 4 5 5 5 5 5 5 5 5 5 5 5 5 5 5 5 4 5 4
8 7 6 5 5 4 4 4 3 3 3 2 0 1 3 5 7 7 7 3 4 3 3 3 4 5 5 5 5 5 5 5 5 5 5 5 5 5 5 5 4 5 4
7 8 7 5 5 4 4 3 3 3 2 2 2 1 2 2 2 3 3 3 3 3 4 4 4 4 5 5 5 5 5 5 5 5 5 5 4 4 5 6 5 5 4
6 6 7 6 5 4 3 3 3 3 3 2 2 2 4 3 3 3 3 3 3 4 4 4 4 4 4 5 5 6 6 5 5 5 5 5 5 4 4 4 5 4 4
6 5 5 5 4 3 3 2 2 2 2 2 1 2 4 3 2 3 3 3 3 3 3 4 4 4 4 4 5 6 6 5 5 5 5 5 4 5 5 4 4 4 4
5 5 4 4 3 3 2 2 2 2 2 1 1 2 2 2 3 3 3 3 4 4 4 4 5 4 4 3 3 4 5 5 5 6 6 5 5 5 5 5 6 5 5
5 5 4 3 3 2 2 1 1 1 1 2 2 2 2 3 3 4 4 4 4 4 4 4 4 6 6 4 3 3 3 4 5 5 7 6 6 5 5 5 5 5 5
4 4 3 3 2 1 1 0 1 1 2 2 2 3 3 4 4 4 4 4 5 5 5 4 4 5 6 6 5 4 5 6 6 5 5 5 6 6 5 5 5 5 4
3 3 2 2 1 1 0 1 1 2 2 2 3 3 4 4 4 4 4 4 4 4 4 4 4 5 5 4 5 6 6 6 7 7 6 5 6 5 6 5 6 5 5
Wind_Direction
281 276 273 269 266 265 263 263 260 255 249 244 239 235 230 226 222 223 225 223 226 227 223 223 224 219 218 215 213 213 216 214 228 215 172 164 166 170 167 169 171 177 180
288 285 280 278 275 271 268 268 267 265 259 251 246 242 239 234 226 225 226 223 224 225 224 223 225 219 219 214 212 213 214 211 212 213 186 168 168 172 164 161 159 160 168
295 292 289 286 281 276 275 274 271 268 266 261 254 248 244 240 234 229 229 227 225 225 224 222 222 216 219 215 210 211 211 207 205 199 189 166 148 148 148 145 146 152 158
298 292 290 288 286 284 283 279 273 269 265 260 256 254 251 246 239 233 231 231 229 227 224 222 219 215 217 212 210 210 203 201 195 187 178 160 151 146 149 158 163 166 169
300 295 291 292 293 292 289 285 279 273 267 262 260 256 253 247 239 233 231 232 233 232 227 221 218 214 211 207 206 202 197 198 188 185 180 166 167 162 176 165 166 148 155
300 295 296 298 297 292 290 288 284 279 274 269 263 258 254 248 242 232 229 231 230 229 229 222 212 203 198 194 192 189 189 193 193 189 186 183 185 179 157 158 155 156 180
297 295 295 295 294 290 289 286 281 279 277 271 267 265 262 255 242 231 225 228 229 226 219 210 202 193 183 179 170 162 173 183 187 186 182 187 178 176 164 164 169 164 170
296 294 295 295 291 290 287 281 278 277 272 269 267 265 265 263 247 234 225 225 226 222 212 201 189 180 176 163 150 147 154 160 167 172 171 167 160 159 165 164 152 124 92
297 296 296 294 291 291 286 281 279 278 275 270 269 265 263 265 245 227 210 217 214 213 201 188 178 173 168 159 151 148 138 121 104 113 116 120 125 132 136 130 137 138 141
296 295 294 290 286 283 281 280 279 275 272 274 273 267 261 262 242 215 201 203 197 191 173 168 167 166 162 157 158 154 152 145 125 108 100 98 104 116 125 140 153 153 140
298 296 293 288 283 281 281 279 277 274 273 269 270 273 265 257 242 216 202 200 185 175 172 165 148 148 151 151 152 154 152 140 128 122 116 107 100 98 96 87 92 133 142
303 298 295 291 285 282 279 278 273 267 267 265 266 272 271 259 234 214 198 191 178 172 171 158 142 140 140 141 141 137 134 129 125 123 122 119 116 109 98 90 80 71 73
301 296 294 293 287 281 276 275 273 260 258 262 254 256 266 268 227 189 177 168 160 154 143 139 135 131 127 126 127 131 131 133 132 130 131 123 115 116 110 96 81 78 69
295 293 293 291 289 283 274 266 261 255 250 254 251 247 250 248 220 171 152 137 131 122 119 119 119 119 113 111 115 115 115 124 131 131 125 119 115 114 110 108 107 104 91
293 290 290 286 283 281 272 263 260 255 240 238 241 229 222 233 222 177 160 153 146 137 127 117 114 121 120 118 109 108 110 115 115 118 125 126 123 118 112 109 113 110 109
294 292 287 283 281 278 278 282 273 264 262 243 232 221 227 198 170 163 152 143 136 136 125 133 136 138 138 135 130 122 116 120 121 123 127 129 132 132 127 119 114 117 122
285 287 283 278 275 276 273 271 282 295 277 254 225 203 191 166 157 151 144 140 138 136 125 139 143 144 140 136 135 132 126 121 119 123 127 130 132 133 132 132 130 125 124
284 281 276 273 270 267 264 261 260 263 276 293 258 164 156 152 146 142 140 133 135 130 133 144 144 141 140 138 135 129 123 121 120 124 126 128 132 135 136 137 138 138 136
285 280 275 274 270 265 262 258 251 244 243 253 282 127 132 137 134 133 134 131 142 138 130 133 136 135 133 131 129 127 127 128 128 128 130 133 136 135 135 137 136 137 135
283 280 279 276 273 266 259 252 244 234 227 219 216 202 156 141 136 131 119 109 120 125 126 124 122 124 128 130 129 128 126 127 130 130 133 134 134 136 140 144 147 148 150
284 284 282 277 268 262 255 247 242 233 224 213 209 190 161 155 147 135 124 113 114 118 121 121 122 126 126 128 129 131 132 134 137 137 138 138 139 139 142 143 145 146 144
281 282 280 278 276 269 262 255 239 225 215 207 175 130 128 118 117 113 106 101 98 100 111 120 119 118 127 133 136 137 139 142 143 141 140 140 142 144 144 143 144 145 146
281 281 279 278 277 273 264 251 235 214 197 177 152 128 118 109 106 107 105 99 95 93 93 100 105 100 95 99 114 134 144 151 152 150 147 148 150 153 151 152 154 155 160
288 281 279 278 276 268 254 235 210 175 156 139 126 116 110 107 105 102 99 95 93 89 89 93 103 111 109 104 102 106 118 128 132 140 147 150 151 151 151 153 158 161 163
298 292 288 285 283 274 252 169 132 122 115 113 110 108 106 102 99 99 98 96 98 99 97 97 103 110 115 116 118 125 133 132 133 136 139 143 148 151 152 154 157 160 164
306 304 307 310 309 312 121 126 118 115 112 107 106 106 105 103 102 101 101 102 103 101 99 98 108 114 118 117 125 133 139 143 145 145 141 142 146 151 152 154 158 162 166